This is the latest recevied weather packets stored in our database for station/object W0WC. If no packets are shown the sender has not sent any weather packets the latest 10 day(s).
| Time | Temp. | Humidity | Pressure | Rain* | Wind** | Luminosity | Snow |
|---|---|---|---|---|---|---|---|
| 1777474748 | 12.22° C | 71% | 1020.9 hPa | 0 mm | - | 434 W/m² | - |
| 1777474444 | 12.22° C | 71% | 1021.2 hPa | 0 mm | - | 488 W/m² | - |
| 1777474140 | 11.67° C | 72% | 1021.2 hPa | 0 mm | - | 345 W/m² | - |
| 1777473839 | 11.67° C | 72% | 1021.3 hPa | 0 mm | - | 472 W/m² | - |
| 1777473535 | 11.11° C | 72% | 1021.2 hPa | 0 mm | - | 375 W/m² | - |
| 1777473230 | 11.67° C | 72% | 1021.2 hPa | 0 mm | - | 323 W/m² | - |
| 1777472927 | 11.67° C | 72% | 1020.9 hPa | 0 mm | - | 389 W/m² | - |
| 1777472624 | 11.67° C | 73% | 1020.9 hPa | 0 mm | - | 412 W/m² | - |
| 1777472321 | 11.11° C | 74% | 1020.8 hPa | 0 mm | - | 379 W/m² | - |
| 1777472018 | 11.11° C | 74% | 1021 hPa | 0 mm | - | 361 W/m² | - |
| 1777471713 | 11.11° C | 75% | 1020.9 hPa | 0 mm | - | 307 W/m² | - |
| 1777471410 | 10.56° C | 75% | 1020.9 hPa | 0 mm | - | 249 W/m² | - |
| 1777471107 | 10.56° C | 77% | 1021.2 hPa | 0 mm | - | 197 W/m² | - |
| 1777470803 | 10° C | 77% | 1020.9 hPa | 0 mm | - | 168 W/m² | - |
| 1777470501 | 10° C | 76% | 1020.7 hPa | 0 mm | - | 142 W/m² | - |
| 1777470197 | 10° C | 78% | 1020.9 hPa | 0 mm | - | 121 W/m² | - |
| 1777469894 | 10° C | 79% | 1020.7 hPa | 0 mm | - | 140 W/m² | - |
| 1777469589 | 10° C | 80% | 1020.7 hPa | 0 mm | - | 131 W/m² | - |
| 1777469289 | 10° C | 81% | 1020.8 hPa | 0 mm | - | 83 W/m² | - |
| 1777468985 | 9.44° C | 83% | 1020.8 hPa | 0 mm | - | 100 W/m² | - |
| 1777468680 | 9.44° C | 84% | 1020.8 hPa | 0 mm | - | 86 W/m² | - |
| 1777468377 | 8.89° C | 85% | 1020.6 hPa | 0 mm | - | 76 W/m² | - |
| 1777468073 | 8.89° C | 87% | 1020.6 hPa | 0 mm | - | 70 W/m² | - |
| 1777467770 | 8.89° C | 88% | 1020.5 hPa | 0 mm | - | 63 W/m² | - |
| 1777467470 | 8.89° C | 89% | 1020.5 hPa | 0 mm | - | 59 W/m² | - |
* Rain latest hour (hover to see other rain measurements)
** Current wind speed in m/s (hover to see current wind gust speed)